Regional Weather Roundup
Issued by NWS

Home | Current Version | Previous Version | Graphics & Text | Print | Product List | Glossary On
Versions: 1 2 3 4 5 6 7 8 9 10 11 12 13 14 15 16 17 18 19 20 21 22 23 24 25 26 27 28 29 30 31 32 33 34 35 36 37 38 39 40 41 42 43 44 45 46 47 48 49 50
000
ASUS43 KLOT 070521
RWRIL

ILLINOIS REGIONAL WEATHER ROUNDUP
NATIONAL WEATHER SERVICE CHICAGO/ROMEOVILLE IL
1200 AM CDT THU MAY 07 2015

NOTE: "FAIR" INDICATES FEW OR NO CLOUDS BELOW 12,000 FEET WITH NO
SIGNIFICANT WEATHER AND/OR OBSTRUCTIONS TO VISIBILITY.

* THESE STATIONS ARE NOT UNDER NWS QUALITY CONTROL. THEY ALSO MAY NOT
  REPORT WEATHER SUCH AS PRECIPITATION OR FOG.

ILZ001-002-007-009-015-016-024-070600-
NORTHWEST ILLINOIS

CITY           SKY/WX    TMP DP  RH WIND       PRES   REMARKS
MOLINE         MOCLDY    65  59  81 E8        29.99S
STERLING*      CLEAR     59  55  88 SE5       30.03S
SAVANNA*       PTCLDY    64  59  84 E7        30.01R
$$

ILZ003-004-008-010-011-017-018-070600-
NORTH CENTRAL ILLINOIS

CITY           SKY/WX    TMP DP  RH WIND       PRES   REMARKS
ROCKFORD       PTCLDY    62  56  80 S6        30.06R HAZE
FREEPORT*      CLEAR     59  56  88 SE9       30.05R
ROCHELLE*      CLEAR     63  58  85 SE12      30.05R HAZE
DE KALB*       PTCLDY    60  56  85 E9        30.07R FOG
PERU*          CLEAR     67  54  61 S9        30.05R
$$

ILZ005-006-012>014-019>023-070600-
NORTHEAST ILLINOIS

CITY           SKY/WX    TMP DP  RH WIND       PRES   REMARKS
CHICAGO-OHARE  PTCLDY    56  50  80 E3        30.06F
CHICAGO-MIDWAY CLEAR     59  51  75 CALM      30.07S
AURORA         PTCLDY    62  55  77 E6        30.05F HAZE
LANSING*       CLEAR     57  52  82 CALM      30.08S
JOLIET*        PTCLDY    64  58  80 CALM      30.06S
WAUKEGAN       PTCLDY    45  45 100 NE3       30.07S
DUPAGE AIRPORT CLEAR     60  55  83 CALM      30.06S
KANKAKEE*      PTCLDY    65  56  74 CALM      30.08R
WHEELING       CLEAR     50  47  89 CALM      30.09S
MORRIS*        PTCLDY    66  56  69 SE6       30.04S
ROMEOVILLE*    PTCLDY    62  55  79 E6        30.07S
NORTHERLY ISL    N/A     51  49  92 CALM        N/A
$$

LMZ740>746-070600-
SOUTHERN LAKE MICHIGAN

STATION/POSITION SKY/WX   TEMP    WIND        PRES    VSBY  WAVE
                          AIR SEA DIR/SP/G                  HT/PER
                          (F)     (DEG/KT/KT) (MB)    (MI)  (FT/S)
HARRISON CRIB              47     340/  5/  5   N/A
BURNHAM HARBOR             51      CALM  /  3   N/A
CALUMET HARBOR             49      10/  2/  3   N/A
BURNS HARBOR               54     240/  6/  7 1019.0S
MICHIGAN CITY              70     110/ 10/ 12   N/A
MICHIGAN CITY 6N           63 53  150/ 10/ 10   N/A           1
ST. JOSEPH                 63 52  160/ 10/ 10   N/A           1
$$

ILZ025>027-034>036-040-047-049-050-058-095>099-070600-
WEST-CENTRAL ILLINOIS

CITY           SKY/WX    TMP DP  RH WIND       PRES   REMARKS
QUINCY         CLEAR     68  52  56 SE7       30.00R
GALESBURG*     PTCLDY    68  55  62 SE7       30.01S
MACOMB*        PTCLDY    66  55  67 SE8       30.03R
JACKSONVILLE*  CLEAR     71  54  56 SE7       30.03R
PITTSFIELD*    CLEAR     70  52  53 S7        30.03R
$$

ILZ028>032-037-038-041>044-048-051>054-059>061-070600-
CENTRAL ILLINOIS

CITY           SKY/WX    TMP DP  RH WIND       PRES   REMARKS
PONTIAC        MOCLDY    63  58  84 SE6       30.07R
BLOOMINGTON    CLEAR     65  55  69 S9        30.08R
DECATUR        CLEAR     67  53  61 S3        30.06S
PEORIA         CLEAR     73  54  51 S8        30.03R
LACON*         CLEAR     67  53  60 SE8       30.03R
LINCOLN*       CLEAR     67  54  62 S3        30.03R
SPRINGFIELD    CLEAR     71  55  56 S10       30.04S
TAYLORVILLE    CLEAR     64  54  68 SE6       30.05S
$$

ILZ033-039-045-046-055>057-062-063-070600-
EAST-CENTRAL ILLINOIS

CITY           SKY/WX    TMP DP  RH WIND       PRES   REMARKS
CHAMPAIGN      CLEAR     64  51  62 SE7       30.07S
DANVILLE*      PTCLDY    67  54  63 SE6       30.07R
RANTOUL*       PTCLDY    70  55  57 SE6       30.08S
MATTOON        CLEAR     68  54  60 S5        30.07R
PARIS*         CLEAR     67  55  66 SE3       30.09S
$$

ILZ079-100>102-070600-
SOUTHWEST ILLINOIS

CITY           SKY/WX    TMP DP  RH WIND       PRES   REMARKS
ALTON          CLEAR     64  56  75 SE6       30.04S
BELLEVILLE     CLEAR     66  57  72 SE1       30.04R
CAHOKIA*       CLEAR     68  55  63 S5        30.04R
SPARTA*        CLEAR     66  56  70 SE3       30.06R
$$

ILZ064>066-069>071-074>076-080>082-084>086-088>090-092>094-070600-
SOUTH-CENTRAL ILLINOIS

CITY           SKY/WX    TMP DP  RH WIND       PRES   REMARKS
CARBONDALE     CLEAR     64  55  72 SE6       30.06R
CAIRO*         CLEAR     64  55  71 CALM      30.06R
EFFINGHAM*     CLEAR     64  53  68 E3        30.08S
MARION         CLEAR     68  57  68 CALM      30.07R
MT. VERNON     CLEAR    N/A N/A N/A CALM      30.07R
CENTRALIA*     CLEAR     65  55  68 SE6       30.06R
SALEM*         CLEAR     71  56  60 SE3       30.06F
METROPOLIS*    CLEAR     62  60  95 CALM      30.06S
$$

ILZ067-068-072-073-078-083-087-091-070600-
SOUTHEAST ILLINOIS

CITY           SKY/WX    TMP DP  RH WIND       PRES   REMARKS
LAWRENCEVILLE  CLEAR     67  56  67 CALM      30.08S
FLORA*         CLEAR     65  56  72 CALM      30.07S
FAIRFIELD*     CLEAR     67  58  72 CALM      30.06S
HARRISBURG*    CLEAR     63  58  83 CALM      30.08S
ROBINSON*      CLEAR     65  55  67 SE3       30.09S
CARMI*         CLEAR     62  54  75 CALM      30.07S
$$

ABBREVIATIONS USED IN REMARKS
   TC - TEMPERATURE IN CELSIUS
  WCI - WIND CHILL INDEX
   HX - HEAT INDEX
  VSB - VISIBILITY
$$



USA.gov is the U.S. government's official web portal to all federal, state and local government web resources and services.